| time (UTC) | temp F | wind direction | speed MPH | gust MPH | rain 1hr in | rain 24hr in | rain mn in | humidity % | barometer mb |
| 20260502212341 | 65 | 80 | 4.0 | 8.0 | 0.00 | 0.00 | 0.00 | 85 | 1017.8 |
| 20260502211332 | 65 | 88 | 3.0 | 6.0 | 0.00 | 0.00 | 0.00 | 85 | 1017.6 |
| 20260502210350 | 65 | 33 | 1.0 | 5.0 | 0.00 | 0.00 | 0.00 | 85 | 1017.5 |
| 20260502205342 | 65 | 14 | 2.0 | 6.0 | 0.00 | 0.00 | 0.00 | 85 | 1017.5 |
| 20260502204332 | 65 | 17 | 4.0 | 8.0 | 0.00 | 0.00 | 0.00 | 85 | 1017.5 |
| 20260502203332 | 65 | 22 | 4.0 | 9.0 | 0.00 | 0.00 | 0.00 | 86 | 1017.4 |
| 20260502202347 | 65 | 340 | 4.0 | 6.0 | 0.00 | 0.00 | 0.00 | 86 | 1017.4 |
| 20260502201335 | 65 | 65 | 6.0 | 9.0 | 0.00 | 0.00 | 0.00 | 86 | 1017.2 |
| 20260502200334 | 65 | 69 | 2.0 | 9.0 | 0.00 | 0.00 | 0.00 | 87 | 1017.2 |
| 20260502195403 | 65 | 45 | 3.0 | 10.0 | 0.00 | 0.00 | 0.00 | 87 | 1017.1 |
| 20260502194332 | 64 | 73 | 6.0 | 10.0 | 0.00 | 0.00 | 0.00 | 87 | 1017.0 |
| 20260502193332 | 65 | 360 | 5.0 | 8.0 | 0.00 | 0.00 | 0.00 | 87 | 1017.0 |
| 20260502192346 | 65 | 79 | 4.0 | 8.0 | 0.00 | 0.00 | 0.00 | 86 | 1017.1 |
| 20260502191335 | 65 | 59 | 3.0 | 9.0 | 0.00 | 0.00 | 0.00 | 86 | 1017.0 |
| 20260502190347 | 65 | 18 | 5.0 | 11.0 | 0.00 | 0.00 | 0.00 | 86 | 1017.0 |
| 20260502185355 | 65 | 71 | 4.0 | 10.0 | 0.00 | 0.00 | 0.00 | 85 | 1017.0 |
| 20260502184353 | 66 | 65 | 6.0 | 9.0 | 0.00 | 0.00 | 0.00 | 85 | 1017.0 |
| 20260502183338 | 66 | 18 | 3.0 | 9.0 | 0.00 | 0.00 | 0.00 | 84 | 1017.1 |
| 20260502182337 | 66 | 82 | 3.0 | 8.0 | 0.00 | 0.00 | 0.00 | 84 | 1017.1 |
| 20260502181355 | 66 | 13 | 6.0 | 10.0 | 0.00 | 0.00 | 0.00 | 83 | 1017.1 |
| 20260502180405 | 66 | 87 | 2.0 | 10.0 | 0.00 | 0.00 | 0.00 | 83 | 1017.3 |
| 20260502170341 | 67 | 32 | 4.0 | 16.0 | 0.00 | 0.00 | 0.00 | 81 | 1017.4 |
| 20260502164335 | 67 | 69 | 5.0 | 16.0 | 0.00 | 0.00 | 0.00 | 80 | 1017.4 |
| 20260502163343 | 68 | 57 | 6.0 | 16.0 | 0.00 | 0.00 | 0.00 | 79 | 1017.7 |
| 20260502162358 | 68 | 87 | 3.0 | 16.0 | 0.00 | 0.00 | 0.00 | 80 | 1017.9 |
| 20260502161335 | 68 | 30 | 6.0 | 16.0 | 0.00 | 0.00 | 0.00 | 78 | 1017.9 |
| 20260502160415 | 68 | 65 | 3.0 | 16.0 | 0.00 | 0.00 | 0.00 | 78 | 1018.0 |
| 20260502152341 | 69 | 87 | 6.0 | 16.0 | 0.00 | 0.00 | 0.00 | 77 | 1018.3 |
| 20260502151336 | 69 | 68 | 5.0 | 16.0 | 0.00 | 0.00 | 0.00 | 77 | 1018.3 |
| 20260502150349 | 69 | 120 | 3.0 | 16.0 | 0.00 | 0.00 | 0.00 | 77 | 1018.4 |
| 20260502130330 | 70 | 92 | 7.0 | 16.0 | 0.00 | 0.00 | 0.00 | 73 | 1019.4 |
| 20260502123355 | 71 | 69 | 7.0 | 16.0 | 0.00 | 0.00 | 0.00 | 73 | 1019.3 |
| 20260502122401 | 71 | 82 | 8.0 | 15.0 | 0.00 | 0.00 | 0.00 | 72 | 1019.7 |
| 20260502121331 | 70 | 67 | 5.0 | 14.0 | 0.00 | 0.00 | 0.00 | 74 | 1019.9 |
| 20260502120340 | 70 | 103 | 6.0 | 14.0 | 0.00 | 0.00 | 0.00 | 76 | 1019.9 |
| 20260502115405 | 70 | 78 | 7.0 | 14.0 | 0.00 | 0.00 | 0.00 | 75 | 1020.0 |
| 20260502114401 | 70 | 101 | 6.0 | 14.0 | 0.00 | 0.00 | 0.00 | 75 | 1020.1 |
| 20260502113357 | 70 | 34 | 7.0 | 14.0 | 0.00 | 0.00 | 0.00 | 75 | 1020.0 |
| 20260502112355 | 70 | 65 | 7.0 | 14.0 | 0.00 | 0.00 | 0.00 | 74 | 1020.1 |
| 20260502111340 | 70 | 59 | 5.0 | 14.0 | 0.00 | 0.00 | 0.00 | 75 | 1020.1 |
| 20260502110337 | 70 | 75 | 5.0 | 14.0 | 0.00 | 0.00 | 0.00 | 75 | 1020.3 |
| 20260502105407 | 70 | 66 | 6.0 | 14.0 | 0.00 | 0.00 | 0.00 | 75 | 1020.3 |
| 20260502104336 | 70 | 83 | 5.0 | 14.0 | 0.00 | 0.00 | 0.00 | 75 | 1020.3 |
| 20260502103333 | 70 | 59 | 7.0 | 14.0 | 0.00 | 0.00 | 0.00 | 76 | 1020.4 |
| 20260502102351 | 69 | 115 | 6.0 | 14.0 | 0.00 | 0.00 | 0.00 | 76 | 1020.6 |
| 20260502101339 | 70 | 51 | 6.0 | 14.0 | 0.00 | 0.00 | 0.00 | 75 | 1020.9 |
| 20260502100336 | 70 | 59 | 5.0 | 14.0 | 0.00 | 0.00 | 0.00 | 75 | 1020.7 |
| 20260502091337 | 68 | 98 | 4.0 | 14.0 | 0.00 | 0.00 | 0.00 | 80 | 1021.0 |
| 20260502090355 | 68 | 51 | 6.0 | 13.0 | 0.00 | 0.00 | 0.00 | 79 | 1020.9 |
| 20260502071355 | 67 | 59 | 3.0 | 8.0 | 0.00 | 0.00 | 0.00 | 78 | 1020.8 |
| 20260502070338 | 67 | 53 | 2.0 | 7.0 | 0.00 | 0.00 | 0.00 | 78 | 1021.0 |
| 20260502065341 | 67 | 60 | 2.0 | 7.0 | 0.00 | 0.00 | 0.00 | 79 | 1021.0 |
| 20260502064356 | 67 | 78 | 3.0 | 7.0 | 0.00 | 0.00 | 0.00 | 78 | 1021.0 |
| 20260502063340 | 66 | 67 | 2.0 | 7.0 | 0.00 | 0.00 | 0.00 | 79 | 1020.9 |
| 20260502062334 | 66 | 59 | 0.0 | 2.0 | 0.00 | 0.00 | 0.00 | 81 | 1020.8 |
| 20260502061339 | 66 | 21 | 0.0 | 0.0 | 0.00 | 0.00 | 0.00 | 83 | 1020.9 |
| 20260502060333 | 65 | 360 | 0.0 | 0.0 | 0.00 | 0.00 | 0.00 | 83 | 1020.7 |
| 20260502055338 | 65 | 40 | 0.0 | 0.0 | 0.00 | 0.00 | 0.00 | 84 | 1020.7 |
| 20260502054343 | 65 | 53 | 0.0 | 0.0 | 0.00 | 0.00 | 0.00 | 84 | 1020.6 |
| 20260502053333 | 65 | 320 | 0.0 | 1.0 | 0.00 | 0.00 | 0.00 | 84 | 1020.7 |
| 20260502052348 | 65 | 24 | 0.0 | 2.0 | 0.00 | 0.00 | 0.00 | 85 | 1020.6 |
| 20260502051420 | 65 | 348 | 0.0 | 2.0 | 0.00 | 0.00 | 0.00 | 85 | 1020.5 |
| 20260502050344 | 65 | 334 | 0.0 | 3.0 | 0.00 | 0.00 | 0.00 | 85 | 1020.6 |
| 20260502045409 | 65 | 302 | 0.0 | 2.0 | 0.00 | 0.00 | 0.00 | 85 | 1020.5 |
| 20260502044344 | 65 | 317 | 0.0 | 3.0 | 0.00 | 0.00 | 0.00 | 86 | 1020.4 |
| 20260502043400 | 65 | 38 | 0.0 | 2.0 | 0.00 | 0.00 | 0.00 | 85 | 1020.3 |
| 20260502042340 | 65 | 325 | 0.0 | 2.0 | 0.00 | 0.00 | 0.00 | 86 | 1020.2 |
| 20260502041355 | 65 | 326 | 0.0 | 3.0 | 0.00 | 0.00 | 0.00 | 86 | 1020.4 |
| 20260502040341 | 64 | 275 | 0.0 | 1.0 | 0.00 | 0.00 | 0.00 | 87 | 1020.6 |
| 20260502035348 | 64 | 275 | 0.0 | 1.0 | 0.00 | 0.00 | 0.00 | 87 | 1020.7 |
| 20260502034403 | 64 | 360 | 1.0 | 4.0 | 0.00 | 0.00 | 0.00 | 86 | 1020.8 |
| 20260502033357 | 64 | 340 | 0.0 | 0.0 | 0.00 | 0.00 | 0.00 | 87 | 1020.8 |
| 20260502032342 | 64 | 250 | 0.0 | 0.0 | 0.00 | 0.00 | 0.00 | 87 | 1020.9 |
| 20260502031355 | 64 | 250 | 0.0 | 0.0 | 0.00 | 0.00 | 0.00 | 87 | 1020.9 |
| 20260502030402 | 64 | 250 | 0.0 | 0.0 | 0.00 | 0.00 | 0.00 | 87 | 1020.8 |
| 20260502025350 | 64 | 251 | 0.0 | 0.0 | 0.00 | 0.00 | 0.00 | 88 | 1020.9 |
| 20260502024334 | 64 | 250 | 0.0 | 1.0 | 0.00 | 0.00 | 0.00 | 88 | 1020.9 |
| 20260502023408 | 63 | 33 | 0.0 | 0.0 | 0.00 | 0.00 | 0.00 | 88 | 1020.8 |
| 20260502022403 | 63 | 33 | 0.0 | 0.0 | 0.00 | 0.00 | 0.00 | 88 | 1020.6 |
| 20260502021357 | 63 | 33 | 0.0 | 1.0 | 0.00 | 0.00 | 0.00 | 88 | 1020.8 |
| 20260502020344 | 64 | 344 | 0.0 | 0.0 | 0.00 | 0.00 | 0.00 | 88 | 1020.9 |
| 20260502015350 | 64 | 344 | 0.0 | 0.0 | 0.00 | 0.00 | 0.00 | 87 | 1020.9 |
| 20260502014404 | 64 | 360 | 0.0 | 0.0 | 0.00 | 0.00 | 0.00 | 87 | 1020.8 |
| 20260502013347 | 64 | 344 | 0.0 | 0.0 | 0.00 | 0.00 | 0.00 | 87 | 1021.1 |
| 20260502012342 | 64 | 344 | 0.0 | 0.0 | 0.00 | 0.00 | 0.00 | 87 | 1021.0 |
| 20260502011357 | 64 | 344 | 0.0 | 0.0 | 0.00 | 0.00 | 0.00 | 87 | 1021.2 |
| 20260502010338 | 64 | 34 | 0.0 | 0.0 | 0.00 | 0.00 | 0.00 | 87 | 1021.3 |
| 20260502005348 | 64 | 34 | 0.0 | 0.0 | 0.00 | 0.00 | 0.00 | 87 | 1021.4 |
| 20260502004333 | 64 | 34 | 0.0 | 0.0 | 0.00 | 0.00 | 0.00 | 87 | 1021.7 |
| 20260502003343 | 64 | 34 | 0.0 | 0.0 | 0.00 | 0.00 | 0.00 | 87 | 1021.7 |
| 20260502002356 | 64 | 34 | 0.0 | 2.0 | 0.00 | 0.00 | 0.00 | 87 | 1021.9 |
| 20260502001340 | 64 | 26 | 1.0 | 3.0 | 0.00 | 0.00 | 0.00 | 87 | 1021.9 |
| 20260502000335 | 64 | 49 | 0.0 | 2.0 | 0.00 | 0.00 | 0.00 | 87 | 1022.1 |
| 20260501235341 | 64 | 40 | 0.0 | 3.0 | 0.00 | 0.00 | 0.00 | 87 | 1022.2 |
| 20260501234347 | 64 | 80 | 1.0 | 3.0 | 0.00 | 0.00 | 0.00 | 88 | 1022.2 |
| 20260501233341 | 64 | 81 | 0.0 | 0.0 | 0.00 | 0.00 | 0.00 | 88 | 1022.3 |
| 20260501232356 | 64 | 80 | 0.0 | 0.0 | 0.00 | 0.00 | 0.00 | 88 | 1022.4 |
| 20260501231337 | 64 | 120 | 0.0 | 2.0 | 0.00 | 0.00 | 0.00 | 87 | 1022.3 |
| 20260501230352 | 64 | 20 | 0.0 | 2.0 | 0.00 | 0.00 | 0.00 | 87 | 1022.2 |
| 20260501225359 | 65 | 76 | 2.0 | 4.0 | 0.00 | 0.00 | 0.00 | 87 | 1022.3 |
| 20260501224448 | 65 | 67 | 1.0 | 3.0 | 0.00 | 0.00 | 0.00 | 87 | 1022.2 |